When you browse on this site, cookies collect data to enhance your experience and personalize the content and advertising you see.
Visit our Privacy Policy to learn more. By continuing to use the site, you agree to this use of cookies and data.
  • In Spain
  • List of Countries
  • For 7 days
  • Water Temperature
  • Weather Map
  • Weather Widgets
  • user-avatar
    Login

    Hourly Weather Paine

    Today, 19 February, Wednesday

    Time Temperature Precipitation Wind Pressure Humidity
    00:00 +17°C° 0 mm 0 mps 724 mmHg 35%
    01:00 +17°C° 0 mm 0 mps 724 mmHg 35%
    02:00 +17°C° 0 mm 0 mps 724 mmHg 34%
    03:00 +19°C° 0 mm 1 mps 724 mmHg 33%
    04:00 +19°C° 0 mm 1 mps 724 mmHg 32%
    05:00 +19°C° 0 mm 0 mps 724 mmHg 28%
    06:00 +22°C° 0 mm 0 mps 725 mmHg 24%
    07:00 +24°C° 0 mm 0 mps 725 mmHg 20%
    08:00 +29°C° 0 mm 1 mps 725 mmHg 18%
    09:00 +31°C° 0 mm 2 mps 725 mmHg 15%
    10:00 +35°C° 0 mm 2 mps 726 mmHg 13%
    11:00 +36°C° 0 mm 3 mps 726 mmHg 12%
    12:00 +38°C° 0 mm 3 mps 725 mmHg 11%
    13:00 +39°C° 0 mm 3 mps 725 mmHg 10%
    14:00 +38°C° 0 mm 3 mps 725 mmHg 11%
    15:00 +38°C° 0 mm 4 mps 725 mmHg 12%
    16:00 +38°C° 0 mm 4 mps 725 mmHg 13%
    17:00 +33°C° 0 mm 3 mps 725 mmHg 22%
    18:00 +28°C° 0 mm 2 mps 725 mmHg 31%
    19:00 +24°C° 0 mm 1 mps 725 mmHg 40%
    20:00 +23°C° 0 mm 1 mps 725 mmHg 43%
    21:00 +21°C° 0 mm 1 mps 725 mmHg 46%
    22:00 +18°C° 0 mm 0 mps 725 mmHg 49%
    23:00 +20°C° 0 mm 1 mps 725 mmHg 45%

    Tomorrow, 20 February, Thursday

    Time Temperature Precipitation Wind Pressure Humidity
    00:00 +21°C° 0 mm 1 mps 725 mmHg 41%
    01:00 +21°C° 0 mm 1 mps 724 mmHg 37%
    02:00 +21°C° 0 mm 1 mps 724 mmHg 36%
    03:00 +21°C° 0 mm 1 mps 724 mmHg 35%
    04:00 +20°C° 0 mm 1 mps 724 mmHg 34%
    05:00 +21°C° 0 mm 0 mps 725 mmHg 30%
    06:00 +23°C° 0 mm 0 mps 725 mmHg 25%
    07:00 +26°C° 0 mm 0 mps 725 mmHg 20%
    08:00 +30°C° 0 mm 1 mps 726 mmHg 18%
    09:00 +34°C° 0 mm 2 mps 726 mmHg 16%
    10:00 +36°C° 0 mm 2 mps 726 mmHg 14%
    11:00 +37°C° 0 mm 3 mps 726 mmHg 13%
    12:00 +38°C° 0 mm 3 mps 726 mmHg 12%
    13:00 +41°C° 0 mm 4 mps 726 mmHg 11%
    14:00 +40°C° 0 mm 4 mps 726 mmHg 13%
    15:00 +38°C° 0 mm 4 mps 726 mmHg 15%
    16:00 +37°C° 0 mm 4 mps 726 mmHg 17%
    17:00 +31°C° 0 mm 3 mps 726 mmHg 27%
    18:00 +27°C° 0 mm 2 mps 726 mmHg 38%
    19:00 +23°C° 0 mm 1 mps 726 mmHg 48%
    20:00 +20°C° 0 mm 0 mps 726 mmHg 52%
    21:00 +19°C° 0 mm 0 mps 727 mmHg 56%
    22:00 +18°C° 0 mm 0 mps 727 mmHg 59%
    23:00 +17°C° 0 mm 0 mps 727 mmHg 60%

    Day after tomorrow, 21 February, Friday

    Time Temperature Precipitation Wind Pressure Humidity
    00:00 +17°C° 0 mm 0 mps 727 mmHg 60%
    01:00 +17°C° 0 mm 0 mps 726 mmHg 60%
    08:00 +27°C° 0 mm 1 mps 728 mmHg 35%
    09:00 +29°C° 0 mm 2 mps 728 mmHg 30%
    10:00 +32°C° 0 mm 2 mps 728 mmHg 24%
    11:00 +34°C° 0 mm 3 mps 728 mmHg 22%
    12:00 +35°C° 0 mm 3 mps 728 mmHg 19%
    13:00 +37°C° 0 mm 3 mps 727 mmHg 17%
    14:00 +36°C° 0 mm 3 mps 727 mmHg 18%
    15:00 +35°C° 0 mm 4 mps 727 mmHg 20%
    16:00 +35°C° 0 mm 4 mps 727 mmHg 22%
    17:00 +30°C° 0 mm 3 mps 727 mmHg 30%
    18:00 +26°C° 0 mm 2 mps 727 mmHg 39%
    19:00 +22°C° 0 mm 1 mps 727 mmHg 47%
    20:00 +19°C° 0 mm 0 mps 727 mmHg 51%
    21:00 +18°C° 0 mm 0 mps 727 mmHg 55%
    22:00 +17°C° 0 mm 0 mps 727 mmHg 59%
    23:00 +16°C° 0 mm 0 mps 727 mmHg 60%

    22 February, Saturday

    Time Temperature Precipitation Wind Pressure Humidity
    00:00 +16°C° 0 mm 0 mps 727 mmHg 60%
    01:00 +16°C° 0 mm 0 mps 727 mmHg 60%
    02:00 +16°C° 0 mm 0 mps 727 mmHg 59%
    03:00 +16°C° 0 mm 0 mps 727 mmHg 58%
    04:00 +16°C° 0 mm 0 mps 727 mmHg 56%
    05:00 +18°C° 0 mm 0 mps 727 mmHg 51%
    06:00 +20°C° 0 mm 0 mps 728 mmHg 46%
    07:00 +21°C° 0 mm 0 mps 728 mmHg 41%
    08:00 +26°C° 0 mm 1 mps 728 mmHg 35%
    09:00 +28°C° 0 mm 2 mps 728 mmHg 30%
    10:00 +31°C° 0 mm 2 mps 728 mmHg 25%
    11:00 +33°C° 0 mm 3 mps 728 mmHg 23%
    12:00 +34°C° 0 mm 3 mps 728 mmHg 21%
    13:00 +35°C° 0 mm 3 mps 728 mmHg 20%
    14:00 +35°C° 0 mm 4 mps 727 mmHg 21%
    15:00 +34°C° 0 mm 4 mps 727 mmHg 22%
    16:00 +34°C° 0 mm 4 mps 727 mmHg 23%
    17:00 +29°C° 0 mm 3 mps 727 mmHg 33%
    18:00 +25°C° 0 mm 2 mps 726 mmHg 44%
    19:00 +21°C° 0 mm 1 mps 726 mmHg 54%
    20:00 +20°C° 0 mm 1 mps 726 mmHg 58%
    21:00 +17°C° 0 mm 0 mps 726 mmHg 62%
    22:00 +16°C° 0 mm 0 mps 726 mmHg 65%
    23:00 +16°C° 0 mm 0 mps 726 mmHg 64%

    23 February, Sunday

    Time Temperature Precipitation Wind Pressure Humidity
    00:00 +16°C° 0 mm 0 mps 726 mmHg 63%
    01:00 +15°C° 0 mm 0 mps 726 mmHg 62%
    02:00 +15°C° 0 mm 0 mps 725 mmHg 62%
    03:00 +15°C° 0 mm 0 mps 725 mmHg 63%
    04:00 +15°C° 0 mm 0 mps 725 mmHg 63%
    05:00 +17°C° 0 mm 0 mps 726 mmHg 57%
    06:00 +18°C° 0 mm 0 mps 726 mmHg 51%
    07:00 +20°C° 0 mm 0 mps 726 mmHg 44%
    08:00 +25°C° 0 mm 1 mps 727 mmHg 39%
    09:00 +28°C° 0 mm 2 mps 727 mmHg 33%
    10:00 +30°C° 0 mm 2 mps 727 mmHg 28%
    11:00 +31°C° 0 mm 3 mps 727 mmHg 26%
    12:00 +34°C° 0 mm 3 mps 727 mmHg 24%
    13:00 +35°C° 0 mm 4 mps 727 mmHg 22%
    14:00 +34°C° 0 mm 4 mps 727 mmHg 25%
    15:00 +31°C° 0 mm 3 mps 727 mmHg 27%
    16:00 +30°C° 0 mm 3 mps 726 mmHg 30%
    17:00 +26°C° 0 mm 3 mps 726 mmHg 42%
    18:00 +23°C° 0 mm 2 mps 726 mmHg 55%
    19:00 +19°C° 0 mm 1 mps 726 mmHg 67%
    20:00 +18°C° 0 mm 1 mps 726 mmHg 72%
    21:00 +15°C° 0 mm 0 mps 726 mmHg 76%
    22:00 +14°C° 0 mm 0 mps 727 mmHg 81%
    23:00 +13°C° 0 mm 0 mps 726 mmHg 82%

    24 February, Monday

    Time Temperature Precipitation Wind Pressure Humidity
    00:00 +13°C° 0 mm 0 mps 726 mmHg 84%
    01:00 +12°C° 0 mm 0 mps 726 mmHg 86%
    02:00 +12°C° 0 mm 0 mps 726 mmHg 85%
    03:00 +12°C° 0 mm 0 mps 726 mmHg 84%
    04:00 +12°C° 0 mm 0 mps 726 mmHg 84%
    05:00 +14°C° 0 mm 0 mps 726 mmHg 77%
    06:00 +16°C° 0 mm 0 mps 726 mmHg 70%
    07:00 +17°C° 0 mm 0 mps 727 mmHg 62%
    08:00 +22°C° 0 mm 1 mps 727 mmHg 54%
    09:00 +25°C° 0 mm 2 mps 727 mmHg 45%
    10:00 +27°C° 0 mm 2 mps 727 mmHg 36%
    11:00 +29°C° 0 mm 3 mps 727 mmHg 31%
    12:00 +31°C° 0 mm 3 mps 727 mmHg 27%
    13:00 +33°C° 0 mm 3 mps 727 mmHg 22%
    14:00 +33°C° 0 mm 3 mps 727 mmHg 23%
    15:00 +32°C° 0 mm 4 mps 726 mmHg 23%
    16:00 +32°C° 0 mm 4 mps 726 mmHg 24%
    17:00 +27°C° 0 mm 3 mps 726 mmHg 34%
    18:00 +23°C° 0 mm 2 mps 726 mmHg 44%
    19:00 +19°C° 0 mm 1 mps 726 mmHg 54%
    20:00 +18°C° 0 mm 1 mps 726 mmHg 59%
    21:00 +15°C° 0 mm 0 mps 726 mmHg 64%
    22:00 +14°C° 0 mm 0 mps 727 mmHg 69%
    23:00 +14°C° 0 mm 0 mps 726 mmHg 69%
    Show more